[[{"header":{"parameterUnit":"m.s-1","parameterCategory":1,"la1":30.2991,"la2":30.254,"lo1":-89.0895,"lo2":-89.0444,"dy":0.0017,"dx":0.0017,"nx":28,"ny":28,"refTime":"2024-11-23T03:00:00:Z","depth":0,"parameterNumber":2,"parameterNumberName":"U-component_of_WINDS"},"data":[0,0,0,0,0,0,0,0,0,0,0,0,0,0,0,0,0,0,0,0,0,0,0,0,0,0,0,0,0,0,0,0,0,0,0,0,0,0,0,0,0,0,0,0,0,0,0,0,0,0,0,0,0,0,0,0,0,0,1.1688,1.169,0,1.1801,1.1802,1.1803,1.1851,1.1851,1.1851,1.185,1.1963,1.1966,1.1969,0,0,0,0,0,0,0,0,0,0,0,0,0,1.1513,1.1516,1.1688,1.169,1.1691,1.18,1.1802,1.1803,1.1851,1.1851,1.1851,1.185,1.1962,1.1965,1.1969,0,0,0,0,0,0,0,0,0,0,0,0,0,1.1603,1.1517,1.1688,1.1728,1.1733,1.18,1.1802,1.1804,1.1851,1.1851,1.1851,1.185,1.196,1.1965,1.197,1.2005,0,0,1.1984,1.1986,0,0,0,0,0,0,0,0,1.1598,1.161,1.1721,1.1725,1.1731,1.1812,1.1781,1.1871,1.1851,1.1806,1.185,1.185,1.1912,1.1921,1.1943,1.201,1.2015,1.1985,1.1988,1.199,1.1991,0,0,0,0,0,0,0,1.1592,1.1605,1.1733,1.1722,1.1729,1.174,1.1752,1.1798,1.1859,1.181,1.1814,1.1827,1.1915,1.1938,1.1946,1.2016,1.1985,1.1989,1.1992,1.1994,1.2118,1.2118,0,0,0,0,0,0,1.1579,1.1599,1.1729,1.1736,1.1663,1.1743,1.1757,1.1786,1.1859,1.187,1.1827,1.1828,1.193,1.194,1.195,1.1996,1.199,1.1994,1.1997,1.2117,1.2118,1.2118,0,0,0,0,0,0,1.1575,1.159,1.1725,1.1669,1.1687,1.1746,1.1778,1.1788,1.1811,1.1872,1.1883,1.1839,1.193,1.1943,1.1991,1.2,1.1996,1.2,1.2117,1.2117,1.2118,1.2087,0,0,0,0,0,0,1.157,1.1589,1.1603,1.1669,1.169,1.1764,1.1779,1.1791,1.182,1.1823,1.1886,1.1896,1.1931,1.1984,1.1996,1.2007,1.2004,1.2116,1.2117,1.2118,1.2088,1.2087,1.2086,0,0,0,0,0,1.1564,1.1589,1.1604,1.1619,1.1709,1.1765,1.1777,1.1817,1.182,1.1835,1.1874,1.1894,1.1997,1.1988,1.2002,1.2015,1.2116,1.2117,1.2118,1.2088,1.2087,1.2086,0,0,0,0,0,0,1.1522,1.1599,1.1615,1.1663,1.1707,1.1773,1.1793,1.1814,1.1857,1.1859,1.1906,1.192,1.1963,1.1994,1.1982,1.2052,1.2058,1.2062,1.2031,1.203,1.2029,1.2021,1.2008,0,0,0,0,0,1.1519,1.1558,1.1623,1.1659,1.168,1.1732,1.1758,1.1785,1.1832,1.1851,1.1893,1.1937,1.198,1.2007,1.2049,1.2092,1.2107,1.2108,1.2107,1.2106,1.2109,1.2134,1.2135,1.2122,1.2122,1.2122,0,0,1.1512,1.1558,1.158,1.1652,1.1689,1.1728,1.1748,1.1788,1.1818,1.1857,1.1905,1.1937,1.199,1.2035,1.2058,1.2062,1.2116,1.2107,1.2106,1.211,1.2135,1.2137,1.2138,1.2122,1.2122,1.2122,0,0,1.1519,1.1559,1.1593,1.1631,1.1687,1.1722,1.173,1.1792,1.1816,1.1865,1.1895,1.193,1.2002,1.2038,1.2066,1.2087,1.2108,1.21,1.2095,1.2119,1.212,1.2122,1.2129,1.2131,1.2102,1.2102,1.2102,0,1.1503,1.1565,1.1608,1.1648,1.1678,1.1716,1.1751,1.1784,1.1851,1.1871,1.1875,1.1967,1.2004,1.2059,1.2064,1.2086,1.2096,1.2093,1.2117,1.2119,1.212,1.2128,1.2131,1.2101,1.2101,1.2101,1.2101,0,1.1542,1.1584,1.1605,1.167,1.1703,1.174,1.1788,1.1815,1.184,1.1873,1.1923,1.1969,1.2022,1.2037,1.206,1.2095,1.2096,1.2108,1.2115,1.2119,1.2128,1.2131,1.2099,1.2099,1.21,1.21,0,0,1.1527,1.1616,1.1623,1.1653,1.1718,1.1751,1.1789,1.1841,1.1864,1.1909,1.1942,1.2002,1.2014,1.2045,1.2073,1.2094,1.2108,1.2103,1.2105,1.2103,1.2149,1.2139,1.2142,1.2122,1.2123,1.2123,1.2144,0,1.1544,1.1615,1.1655,1.171,1.1749,1.1786,1.1819,1.1862,1.1894,1.1932,1.1967,1.2009,1.2021,1.2041,1.2063,1.2101,1.2118,1.21,1.2152,1.2154,1.2138,1.2146,1.2137,1.2155,1.2148,1.2148,1.2149,0,1.1573,1.1618,1.1677,1.1738,1.1756,1.1785,1.1836,1.1872,1.1921,1.1943,1.1978,1.2006,1.2047,1.2051,1.2108,1.2095,1.2119,1.2141,1.2142,1.2149,1.2152,1.2153,1.2161,1.2164,1.2154,1.2154,1.2153,0,1.1556,1.1631,1.1676,1.1701,1.1773,1.1793,1.1823,1.1873,1.1902,1.1946,1.1965,1.2013,1.2039,1.2075,1.2115,1.2114,1.2168,1.2175,1.2188,1.2186,1.2197,1.2196,1.2209,1.2212,1.2212,1.2212,1.2212,0,1.157,1.1605,1.167,1.1697,1.1737,1.1782,1.182,1.1853,1.1897,1.1931,1.1965,1.1996,1.2047,1.2084,1.2115,1.2158,1.2169,1.2188,1.2196,1.2185,1.2183,1.2201,1.2201,1.2213,1.2213,1.2212,1.2212,0,1.1558,1.1603,1.1655,1.1719,1.1736,1.1762,1.1817,1.1845,1.1879,1.1922,1.1935,1.1988,1.2034,1.2077,1.2138,1.2159,1.2201,1.2212,1.2185,1.2189,1.2199,1.2198,1.2225,1.2231,1.2229,1.2229,1.2229,0,1.1565,1.1592,1.166,1.1686,1.1716,1.1757,1.1787,1.1832,1.1862,1.192,1.1941,1.1989,1.203,1.2101,1.2145,1.2192,1.2203,1.221,1.2211,1.2199,1.2204,1.2202,1.2205,1.2209,1.2208,1.2208,1.2208,0,1.1571,1.1592,1.1635,1.1685,1.172,1.1762,1.1804,1.1823,1.1876,1.1907,1.1955,1.1987,1.2049,1.2097,1.2148,1.2179,1.2202,1.2208,1.2213,1.2202,1.2186,1.2195,1.2182,1.2207,1.2207,1.2207,1.2207,1.2207,1.1569,1.1596,1.1647,1.1693,1.173,1.1769,1.1799,1.1837,1.1878,1.1933,1.1957,1.2005,1.2053,1.2125,1.2155,1.2193,1.2198,1.2206,1.2208,1.2209,1.2207,1.218,1.2202,1.2203,1.2203,1.2203,1.2203,0,1.1578,1.1613,1.1655,1.1714,1.175,1.177,1.1818,1.1846,1.1888,1.1932,1.1972,1.2026,1.2072,1.212,1.2168,1.2189,1.2201,1.2201,1.22,1.2206,1.2199,1.219,1.219,1.219,1.219,1.219,1.219,1.219,1.1587,1.1632,1.1659,1.1723,1.1758,1.1806,1.1832,1.1868,1.1903,1.1963,1.2001,1.2032,1.2077,1.213,1.2172,1.2185,1.2201,1.2198,1.2213,1.2206,1.2207,1.2207,1.2199,1.2201,1.2201,1.2217,1.2217,1.2218]},{"header":{"parameterUnit":"m.s-1","parameterCategory":1,"la1":30.2991,"la2":30.254,"lo1":-89.0895,"lo2":-89.0444,"dy":0.0017,"dx":0.0017,"nx":28,"ny":28,"refTime":"2024-11-23T03:00:00:Z","depth":0,"parameterNumber":3,"parameterNumberName":"V-component_of_WINDS"},"data":[0,0,0,0,0,0,0,0,0,0,0,0,0,0,0,0,0,0,0,0,0,0,0,0,0,0,0,0,0,0,0,0,0,0,0,0,0,0,0,0,0,0,0,0,0,0,0,0,0,0,0,0,0,0,0,0,0,0,2.1761,2.1761,0,2.1825,2.1826,2.1827,2.1863,2.1864,2.1864,2.1864,2.1925,2.1926,2.1928,0,0,0,0,0,0,0,0,0,0,0,0,0,2.1666,2.1667,2.1761,2.1762,2.1762,2.1825,2.1826,2.1827,2.1863,2.1864,2.1864,2.1864,2.1924,2.1926,2.1928,0,0,0,0,0,0,0,0,0,0,0,0,0,2.1716,2.1668,2.1761,2.1788,2.1791,2.1825,2.1826,2.1827,2.1863,2.1864,2.1864,2.1864,2.1924,2.1926,2.1928,2.1938,0,0,2.1935,2.1936,0,0,0,0,0,0,0,0,2.1713,2.1719,2.1783,2.1786,2.179,2.1837,2.1815,2.1864,2.1863,2.1836,2.1864,2.1864,2.1895,2.19,2.1911,2.194,2.1943,2.1935,2.1937,2.1937,2.1938,0,0,0,0,0,0,0,2.171,2.1717,2.1786,2.1784,2.1788,2.1796,2.1804,2.1824,2.1863,2.1838,2.1841,2.1848,2.1897,2.1909,2.1913,2.1944,2.1935,2.1937,2.1938,2.1939,2.1985,2.1985,0,0,0,0,0,0,2.1702,2.1714,2.1784,2.1788,2.1751,2.1798,2.1806,2.1821,2.1863,2.187,2.1848,2.185,2.1905,2.191,2.1915,2.193,2.1937,2.194,2.1941,2.1985,2.1985,2.1985,0,0,0,0,0,0,2.17,2.1708,2.1781,2.1752,2.1762,2.1799,2.1816,2.1822,2.1835,2.1871,2.1877,2.1854,2.1905,2.1912,2.1932,2.1932,2.1941,2.1943,2.1986,2.1985,2.1985,2.1959,0,0,0,0,0,0,2.1697,2.1707,2.1712,2.1752,2.1763,2.1799,2.1816,2.1824,2.1839,2.1842,2.1878,2.1884,2.1906,2.1929,2.1935,2.1936,2.1944,2.1986,2.1985,2.1985,2.196,2.1957,2.1956,0,0,0,0,0,2.1694,2.17,2.1712,2.172,2.177,2.1799,2.1805,2.1832,2.1839,2.1843,2.1867,2.1883,2.1931,2.1931,2.1937,2.1939,2.1986,2.1986,2.1985,2.196,2.1958,2.1956,0,0,0,0,0,0,2.1658,2.1706,2.1719,2.174,2.1765,2.1805,2.1811,2.1828,2.1851,2.1852,2.1883,2.1891,2.1909,2.1926,2.1924,2.1951,2.196,2.1961,2.1939,2.1937,2.1935,2.193,2.1946,0,0,0,0,0,2.1653,2.1673,2.1714,2.1727,2.174,2.1773,2.1787,2.1806,2.1832,2.1843,2.1868,2.1892,2.1913,2.1926,2.1947,2.1962,2.1971,2.1967,2.1965,2.1963,2.1963,2.1974,2.1973,2.1984,2.1984,2.1984,0,0,2.1641,2.167,2.1681,2.1721,2.1743,2.1763,2.1782,2.1802,2.1816,2.1845,2.1867,2.1886,2.1915,2.1933,2.1942,2.1948,2.1962,2.1963,2.1961,2.1962,2.1973,2.1972,2.1971,2.1984,2.1984,2.1984,0,0,2.1631,2.1655,2.167,2.1692,2.1726,2.1748,2.1752,2.179,2.1804,2.1827,2.1849,2.1866,2.1901,2.1921,2.1936,2.1935,2.195,2.1941,2.193,2.194,2.1939,2.1938,2.1939,2.1938,2.1941,2.1941,2.1941,0,2.1612,2.1644,2.1675,2.1694,2.1711,2.174,2.1755,2.1774,2.1812,2.1823,2.1829,2.1875,2.1896,2.192,2.192,2.1931,2.1936,2.1937,2.1937,2.1937,2.1937,2.1937,2.1937,2.194,2.194,2.194,2.194,0,2.162,2.1642,2.1649,2.1688,2.1706,2.1722,2.1755,2.1769,2.1786,2.1807,2.183,2.1857,2.1885,2.1892,2.1908,2.1918,2.1921,2.1931,2.1942,2.1934,2.1935,2.1935,2.1938,2.1938,2.1939,2.1939,0,0,2.1588,2.1645,2.1647,2.1666,2.1705,2.1722,2.174,2.1769,2.1781,2.1806,2.1822,2.1851,2.1862,2.1879,2.1898,2.1906,2.1904,2.1916,2.1917,2.1913,2.1918,2.191,2.1909,2.1915,2.1915,2.1915,2.1915,0,2.1584,2.162,2.1649,2.1673,2.1694,2.1722,2.1738,2.1763,2.1784,2.1803,2.1826,2.1847,2.1859,2.187,2.1879,2.1902,2.1906,2.1903,2.1929,2.1929,2.1921,2.191,2.1901,2.19,2.1916,2.1916,2.1916,0,2.1584,2.1611,2.1638,2.1677,2.1687,2.1701,2.173,2.1749,2.1778,2.1793,2.1812,2.1832,2.1851,2.186,2.1887,2.1884,2.1896,2.191,2.191,2.1914,2.1922,2.1913,2.1901,2.1901,2.1917,2.1917,2.1917,0,2.1559,2.1602,2.1624,2.1639,2.1684,2.1694,2.1713,2.1743,2.1759,2.1784,2.1794,2.1821,2.1835,2.1854,2.188,2.1884,2.1905,2.1915,2.1917,2.1916,2.192,2.1919,2.1909,2.1927,2.1927,2.1927,2.1927,0,2.1552,2.1568,2.1614,2.1627,2.1645,2.1678,2.1694,2.1716,2.1742,2.176,2.1785,2.18,2.1834,2.1853,2.1874,2.1893,2.1899,2.1911,2.1916,2.1909,2.1908,2.1918,2.1919,2.1927,2.1927,2.1927,2.1927,0,2.1527,2.1559,2.1585,2.1627,2.1638,2.165,2.1685,2.1699,2.1721,2.1743,2.175,2.1785,2.1809,2.1838,2.187,2.1884,2.1902,2.1909,2.1893,2.1896,2.1896,2.1896,2.1893,2.1894,2.191,2.191,2.191,0,2.1521,2.1534,2.1578,2.1593,2.1612,2.1635,2.1652,2.1684,2.17,2.1736,2.1745,2.1772,2.1795,2.1832,2.1859,2.1885,2.1893,2.189,2.1897,2.189,2.1894,2.1893,2.1895,2.1888,2.1888,2.1888,2.1887,0,2.1506,2.1522,2.1546,2.1577,2.1597,2.1622,2.1648,2.1658,2.1695,2.1712,2.1739,2.1757,2.1791,2.1817,2.1846,2.1865,2.1882,2.1885,2.1887,2.188,2.187,2.1876,2.1888,2.1885,2.1885,2.1886,2.1886,2.1886,2.1491,2.1504,2.1538,2.1565,2.1588,2.1612,2.1628,2.1654,2.1677,2.1709,2.1726,2.1752,2.1781,2.1822,2.184,2.186,2.1866,2.1868,2.1869,2.1869,2.1868,2.1867,2.1865,2.1865,2.1866,2.1866,2.1866,0,2.1478,2.1502,2.1526,2.1563,2.1584,2.1601,2.1631,2.1647,2.167,2.1697,2.172,2.175,2.1776,2.1806,2.1833,2.1843,2.1852,2.1849,2.1849,2.1853,2.1861,2.1857,2.1842,2.1842,2.1842,2.1842,2.1842,2.1842,2.1474,2.1498,2.1518,2.1553,2.1576,2.1604,2.162,2.1642,2.1663,2.1697,2.1719,2.1739,2.1767,2.1797,2.1821,2.1829,2.1838,2.1833,2.1844,2.185,2.1852,2.1854,2.1851,2.1835,2.1835,2.1835,2.1835,2.1835]}]]